Wind_Speed
28 28 28 28 29 30 32 33 35 35 36 37 37 38 39 40 40 40 41 40 41 44 44 40 34 29 29 31 35 38 40 40 41 43 45 46 42 36 33 32 30 29 28 28 29 30 32 33 35 37 38 38 38 39 41 44 48 51 55 56 55 55 54 53 51 51 50 49 48 47 47 46 45 44 41 39 37 33 31 31 31 30 30 30 31
29 28 29 29 30 31 33 34 35 36 37 38 38 39 40 40 41 41 41 42 43 44 40 35 30 29 31 34 38 39 39 40 41 42 42 40 36 32 30 31 31 31 30 30 30 30 30 30 31 33 35 36 38 39 38 39 43 47 51 54 55 54 53 52 51 50 50 48 48 47 47 46 46 44 42 40 37 34 33 31 30 30 30 30 31
29 29 30 31 31 32 34 35 36 37 38 39 39 39 40 41 41 42 42 43 45 43 37 31 30 31 34 38 39 39 38 39 41 40 38 35 33 31 31 33 35 36 36 35 34 34 34 33 32 32 32 32 35 37 39 38 38 42 47 52 54 54 52 51 50 49 49 48 47 47 47 46 46 46 43 41 39 36 34 32 30 30 30 31 33
30 31 31 31 32 33 34 36 37 38 38 39 39 40 40 41 42 42 43 44 45 41 36 32 32 34 37 39 38 37 37 39 41 38 35 33 32 31 32 34 36 37 38 38 36 36 35 35 34 33 32 32 32 34 37 39 37 38 42 48 52 53 52 50 49 48 48 47 46 46 47 46 46 46 44 42 40 37 35 33 31 32 33 34 35
31 32 32 32 32 33 35 36 37 38 39 39 39 40 41 41 42 43 44 45 45 39 35 34 35 36 38 38 36 36 37 39 40 36 34 33 32 33 33 33 34 35 36 38 38 37 37 37 36 35 33 32 32 32 34 37 37 36 37 43 48 51 52 50 48 47 46 45 45 46 46 46 45 46 45 43 41 38 36 33 33 35 36 36 36
32 33 33 32 33 34 36 37 38 39 39 39 40 40 41 41 42 43 44 46 45 39 36 36 36 35 35 35 35 35 37 38 38 35 33 32 32 33 34 34 34 33 33 35 36 36 37 37 36 36 34 32 32 32 32 34 36 35 34 38 43 48 51 50 48 46 45 44 44 45 46 46 45 45 45 44 42 39 37 35 37 39 38 36 34
33 33 33 33 33 35 36 38 39 39 39 39 39 40 41 41 42 43 46 46 44 40 38 38 36 34 33 34 34 35 35 36 35 33 32 31 31 32 34 35 34 31 30 32 34 34 33 33 33 34 34 33 31 31 32 32 34 35 33 33 39 44 48 50 49 46 43 42 42 43 45 45 45 45 44 44 42 40 39 39 42 40 35 34 33
33 34 34 34 34 36 37 38 39 39 39 39 39 39 40 41 42 43 46 46 43 40 39 39 38 35 34 34 35 35 34 34 32 30 29 28 28 31 33 35 33 31 30 32 33 33 30 27 27 28 30 31 30 30 31 30 31 34 33 30 33 40 45 48 49 47 43 41 40 41 43 44 44 44 44 44 43 42 42 42 41 38 34 34 33
33 34 35 34 35 36 37 38 39 39 38 38 38 39 40 41 42 43 46 46 43 40 40 39 39 38 36 35 35 34 33 32 29 27 26 25 27 30 32 33 33 32 32 32 31 28 25 22 22 22 23 25 27 28 29 28 29 32 33 30 29 34 41 45 47 47 44 41 39 39 41 43 43 43 43 44 45 45 44 42 40 37 35 34 33
33 34 35 35 35 36 37 39 39 38 38 38 38 38 39 41 42 43 46 47 44 41 40 41 41 40 39 39 38 34 31 29 27 24 23 23 25 28 30 33 32 29 28 26 25 24 22 19 19 18 18 19 21 24 26 25 26 29 32 30 27 30 36 41 43 45 44 42 39 37 39 41 43 43 43 45 45 45 44 41 38 36 35 34 33
33 34 35 35 35 36 37 39 39 38 38 38 38 38 39 40 41 43 46 47 45 42 41 42 43 43 43 42 39 34 28 25 23 22 21 22 24 26 30 31 27 25 24 22 21 21 20 18 16 14 13 14 16 19 21 21 22 27 29 28 26 27 32 37 39 42 43 42 39 37 37 39 41 42 43 44 44 43 42 39 36 34 34 33 33
34 34 35 35 35 36 37 39 39 38 38 37 37 37 38 39 41 43 46 47 44 42 41 42 43 44 45 42 37 34 28 22 20 19 20 22 24 25 27 27 24 26 26 22 20 20 19 16 12 10 7 9 11 14 16 17 19 24 26 25 25 26 30 33 35 39 41 41 39 37 37 38 40 42 42 42 42 41 40 38 35 33 33 33 32
34 34 35 35 35 36 38 39 38 38 38 37 37 37 37 39 40 42 45 46 44 42 40 41 44 45 43 39 36 36 30 20 17 18 20 22 23 23 25 25 26 27 26 23 22 22 21 17 12 7 4 4 6 9 13 15 18 22 23 23 23 25 28 30 32 36 39 39 38 37 37 38 39 40 40 41 42 41 40 38 35 34 33 32 31
33 34 35 35 34 36 38 39 38 38 38 37 37 36 37 39 40 41 43 46 45 43 41 41 43 44 40 36 36 37 32 20 16 18 19 22 22 21 24 26 27 26 23 23 24 25 23 19 14 8 2 1 5 8 12 15 18 20 20 20 22 24 27 27 30 34 36 37 36 36 37 38 38 39 41 42 42 40 38 36 33 32 32 31 30
33 35 35 35 34 36 38 38 38 37 37 37 36 36 36 38 39 41 43 45 46 45 43 41 43 45 40 35 35 36 32 20 15 16 17 21 21 19 23 27 27 24 21 23 27 27 23 19 16 10 6 5 7 10 13 16 17 18 18 19 20 22 24 26 29 32 34 34 34 35 37 37 39 40 40 40 39 36 33 31 30 30 29 29 29
34 35 36 35 34 35 37 38 38 37 37 36 36 35 35 36 38 39 41 43 45 46 46 44 44 46 43 37 35 37 32 19 10 13 17 21 20 19 22 25 25 22 20 24 29 30 24 20 18 14 10 10 10 10 11 13 15 16 16 17 18 20 22 24 26 29 31 33 33 35 36 37 39 40 39 37 34 32 30 29 28 28 28 29 29
34 35 36 36 34 35 37 38 38 37 37 37 36 35 34 35 36 37 39 41 44 46 47 46 45 46 43 37 35 38 35 24 13 12 16 19 19 20 21 23 24 22 23 29 32 28 23 20 19 15 12 12 12 11 9 9 10 11 12 14 16 19 21 22 25 27 29 31 33 34 34 35 37 38 37 33 30 29 28 27 28 28 28 29 30
34 35 36 36 35 35 36 37 38 38 37 37 36 34 33 33 34 36 37 39 42 44 46 47 45 46 44 39 36 36 35 30 22 17 17 19 19 19 20 22 23 22 24 30 29 24 22 21 19 16 12 11 10 9 8 8 8 9 10 12 14 17 19 21 23 25 27 30 32 32 33 34 35 35 33 30 27 27 27 27 27 28 28 29 30
33 35 36 36 35 35 35 37 38 38 38 37 36 35 33 32 33 34 36 38 40 42 44 46 46 46 45 42 38 34 32 32 28 23 21 20 19 19 21 23 23 21 23 28 27 23 23 22 20 17 12 10 9 9 9 8 8 8 10 11 13 16 18 20 22 24 26 28 30 31 32 32 30 31 30 27 26 26 26 27 27 28 28 28 29
33 35 35 36 35 34 35 36 37 37 37 37 36 35 33 32 32 33 35 36 38 41 43 45 45 45 46 45 41 36 32 31 29 27 25 23 21 21 23 24 24 22 22 27 26 22 22 23 21 17 12 10 9 9 9 9 8 8 9 11 13 14 17 20 22 24 25 26 29 29 28 26 25 27 29 27 25 26 26 27 28 28 29 28 28
32 34 35 36 35 33 33 35 36 37 37 36 36 35 34 32 32 32 34 36 37 39 41 43 44 44 44 44 44 40 35 32 30 29 27 25 23 23 24 23 23 23 23 26 25 22 20 22 22 17 13 10 8 9 9 9 9 8 9 12 13 14 15 18 20 22 22 24 27 25 21 25 28 28 29 28 25 25 27 28 28 29 28 27 27
32 33 34 35 35 33 33 34 36 36 36 36 35 35 34 32 32 32 33 34 36 38 39 41 42 43 43 43 43 42 38 33 30 29 27 26 25 23 23 22 22 23 23 25 26 21 18 20 21 18 15 12 11 12 11 9 8 9 10 12 14 15 15 15 17 20 21 23 26 26 25 28 31 29 27 28 26 26 27 28 28 28 27 26 25
31 33 34 34 35 33 32 33 35 36 36 35 34 34 33 32 31 31 31 32 33 35 36 38 39 40 42 42 42 41 40 36 32 30 28 28 27 26 24 22 22 22 21 24 26 22 17 19 20 19 16 11 12 16 15 10 7 8 9 12 15 16 16 15 18 20 21 24 26 29 28 22 21 24 24 25 26 26 27 27 27 27 26 25 23
31 32 33 34 34 33 31 32 33 35 35 35 34 33 32 32 31 31 30 30 31 32 33 35 37 38 39 40 40 40 40 37 35 33 30 29 29 29 26 23 21 21 19 21 24 22 17 16 17 19 20 15 15 17 16 12 9 12 16 20 16 13 15 16 17 18 20 24 27 31 31 19 15 19 21 22 25 26 27 28 26 25 24 23 22
31 32 32 33 33 32 31 30 32 34 35 35 34 33 32 32 32 32 31 30 30 30 31 33 34 36 37 37 39 39 39 37 36 35 33 31 30 29 28 25 22 21 19 18 19 20 18 15 12 14 19 19 17 16 14 14 19 25 28 29 20 12 15 17 16 17 17 22 25 28 31 22 14 17 19 21 24 25 26 26 24 23 22 21 21
30 31 32 32 33 32 30 30 30 32 34 35 35 34 34 32 32 32 33 32 31 30 30 31 32 33 34 35 36 37 37 37 36 35 34 33 31 30 29 28 25 22 20 17 16 16 16 15 13 12 16 19 17 13 12 13 18 20 18 19 16 12 14 15 16 17 15 19 23 24 24 22 19 19 20 21 23 24 24 23 22 21 20 21 20
30 30 31 32 32 32 31 30 29 31 33 34 34 35 34 34 33 32 32 33 32 31 30 29 29 30 31 33 34 34 35 35 35 34 33 33 32 31 31 31 29 26 22 19 16 14 13 13 13 13 14 15 16 14 10 12 12 9 7 10 14 13 10 11 14 16 15 16 19 19 19 19 20 20 21 22 23 23 22 22 21 21 21 21 21
29 30 31 32 31 31 32 31 29 29 31 33 34 35 35 35 34 33 32 32 32 31 30 29 28 28 28 30 31 32 32 33 33 33 33 32 31 31 31 30 31 29 26 22 18 15 12 11 12 12 12 12 13 14 11 10 11 9 9 10 11 10 8 9 13 14 14 14 15 17 17 18 20 20 20 20 21 21 21 22 22 21 22 22 23
28 30 31 32 31 31 32 32 30 29 30 32 33 34 35 35 35 34 33 32 31 30 30 29 28 27 26 27 28 29 30 30 31 31 32 32 31 30 29 28 28 29 28 26 22 19 15 13 13 11 10 11 10 11 11 9 9 8 9 9 7 6 6 8 12 13 11 11 13 16 17 17 18 19 18 18 19 19 20 21 21 20 21 22 22
28 30 31 31 30 30 32 33 32 30 30 31 33 34 34 35 35 35 34 33 32 30 29 28 28 27 26 25 25 26 27 28 29 29 29 30 30 30 29 28 26 26 26 26 24 22 19 16 15 13 11 10 8 8 8 7 6 7 6 5 5 6 8 9 10 12 11 10 12 14 15 16 16 17 18 18 18 19 20 20 19 19 20 20 20
28 31 31 30 30 30 32 34 33 31 30 31 32 33 34 35 35 35 35 34 33 31 28 26 26 27 26 25 24 24 24 25 26 27 27 27 28 29 29 28 27 25 24 24 24 24 22 21 19 17 14 11 8 7 6 5 3 4 3 3 3 4 7 9 9 10 11 11 12 13 14 14 15 16 18 18 17 17 19 20 20 21 20 20 21
28 31 32 31 29 30 32 34 33 32 31 31 32 33 34 35 35 35 36 36 35 32 29 26 24 25 25 25 24 23 22 22 23 24 25 25 25 26 26 27 26 25 23 22 22 22 22 22 20 19 18 16 12 9 6 4 2 1 3 4 5 6 7 8 8 9 10 11 12 12 12 13 14 15 16 16 15 15 17 19 20 20 19 19 20
27 31 32 31 30 30 32 35 34 32 31 31 32 33 34 35 36 36 36 36 36 33 30 26 23 22 23 24 24 23 22 22 21 21 22 23 23 23 23 24 25 24 24 22 21 20 19 19 19 19 18 18 17 15 11 8 4 2 3 4 5 8 9 9 8 8 9 10 11 11 12 14 15 16 16 15 14 14 16 17 17 17 17 18 19
26 29 32 31 30 30 33 35 34 32 31 32 32 33 34 35 36 36 36 36 35 33 31 27 24 22 21 22 23 23 23 22 21 20 20 20 21 22 22 22 22 22 23 23 21 19 18 17 17 17 16 17 18 18 17 15 12 8 5 5 5 7 8 9 8 7 8 11 12 12 13 14 15 16 16 15 14 14 14 15 16 17 17 17 17
26 28 30 31 30 30 33 35 34 32 32 32 33 34 35 36 36 36 36 36 35 33 31 28 25 23 21 21 22 23 23 22 21 20 19 19 19 19 20 20 20 20 20 20 20 19 18 17 16 15 14 15 16 17 17 17 16 14 10 6 4 6 8 10 9 8 10 13 13 14 14 13 13 13 13 14 14 15 17 17 17 16 15 14 14
26 27 29 31 30 30 32 35 34 33 32 32 33 34 35 36 36 36 35 35 34 32 31 29 26 24 23 22 21 22 23 23 23 22 20 19 19 18 18 18 18 18 18 18 18 18 17 17 16 14 13 13 13 14 14 14 14 14 13 11 8 5 4 7 8 9 13 15 14 14 13 11 11 11 11 11 12 14 17 16 15 14 13 13 14
26 26 28 31 31 31 32 34 35 34 33 33 34 35 36 37 36 36 35 34 33 32 31 29 28 26 24 23 22 22 23 23 23 23 22 20 19 18 18 17 17 17 16 16 16 16 16 16 16 15 14 12 11 10 10 10 11 11 12 11 10 9 7 6 5 6 11 14 13 13 12 10 10 10 10 10 9 10 12 12 12 13 13 13 13
27 26 27 30 31 31 31 33 35 35 34 34 35 36 36 36 36 35 34 32 32 31 31 30 28 27 26 25 24 24 24 24 24 24 24 22 20 19 18 17 17 16 16 15 15 15 15 15 15 15 14 12 10 8 7 7 8 8 8 9 9 8 8 8 8 7 7 8 9 9 9 9 9 9 9 9 9 8 9 10 12 12 12 12 12
27 27 27 29 31 31 32 33 34 35 35 35 35 35 36 36 35 34 33 31 30 30 30 29 28 27 26 26 25 25 25 26 25 25 25 24 23 21 19 18 17 16 16 15 14 13 13 13 13 12 12 12 10 8 6 5 5 5 5 6 7 6 6 6 7 7 6 6 5 5 6 7 7 8 8 9 9 9 10 11 11 11 11 11 11
27 27 27 28 30 32 32 32 33 35 36 35 34 35 36 36 35 33 32 31 30 29 29 28 28 27 26 26 25 25 25 26 27 27 27 26 25 24 22 20 18 17 16 15 14 13 12 12 11 11 10 10 9 8 7 6 4 3 3 4 4 4 4 4 5 6 6 5 5 5 5 5 6 7 8 9 9 10 11 11 11 11 11 11 11
26 27 27 28 30 31 32 32 32 33 35 35 35 35 35 36 35 33 31 30 29 29 28 27 26 26 26 25 25 25 25 26 26 27 28 28 28 27 25 23 21 19 18 16 14 13 13 12 11 10 9 8 8 7 7 7 5 3 2 1 1 2 2 3 4 4 5 5 5 5 5 5 6 6 7 8 8 9 10 11 11 11 11 11 11
25 26 27 28 29 31 32 32 32 33 34 35 34 34 35 35 34 33 31 30 29 28 27 26 25 25 25 25 25 25 25 25 26 26 27 28 28 28 28 26 24 22 20 18 16 13 12 12 12 10 10 9 7 6 6 6 5 3 2 1 2 2 2 2 3 3 4 5 5 5 5 6 6 6 6 7 7 8 9 10 11 11 11 11 11
23 25 26 27 28 30 31 32 32 32 34 34 34 34 34 35 34 33 31 30 28 28 27 26 26 25 25 25 25 25 25 25 26 27 27 28 28 29 29 28 26 24 22 20 17 14 12 12 12 11 10 10 9 8 6 6 5 4 3 2 3 3 2 2 3 3 4 4 5 5 5 6 6 7 7 7 7 8 9 10 11 11 11 11 11
21 23 25 26 27 29 30 31 31 32 33 34 34 33 34 34 35 34 32 30 29 28 27 27 26 26 25 25 25 25 25 26 27 28 28 29 29 29 29 29 28 26 24 21 18 16 13 12 12 12 11 10 10 9 8 7 6 4 3 3 2 2 3 3 3 4 4 5 5 6 6 6 7 7 8 8 9 9 10 11 12 12 12 12 12
21 22 23 25 26 28 29 30 31 31 33 34 34 33 34 35 35 35 33 32 31 30 29 27 27 26 26 26 26 26 27 28 29 30 30 31 30 30 29 29 28 26 24 22 19 16 14 13 12 12 12 11 10 10 10 9 8 6 5 4 3 2 3 4 4 4 4 5 5 6 6 6 7 7 8 8 9 10 10 10 11 11 11 12 12
21 21 22 24 25 27 29 30 30 31 32 33 33 33 34 35 35 36 35 34 33 32 31 30 28 27 27 27 27 28 29 30 32 32 33 33 32 32 31 29 28 26 24 22 19 16 14 13 12 12 13 13 12 11 10 10 9 8 7 6 5 4 3 3 4 5 5 5 5 5 5 6 6 7 7 8 8 8 9 9 10 10 10 11 10
22 22 22 23 24 26 28 30 31 31 32 33 33 33 34 35 36 36 36 36 35 34 34 32 31 30 29 29 29 30 31 33 34 34 35 35 34 33 31 30 28 26 23 20 18 17 14 13 12 12 13 13 13 12 11 10 10 10 9 8 6 5 4 3 5 6 6 6 5 5 5 5 5 6 6 7 7 7 7 8 9 9 10 9 9
23 23 23 23 24 26 27 29 31 31 32 32 33 34 34 35 36 36 37 37 36 36 36 35 34 32 31 31 31 32 34 35 35 36 36 35 34 32 30 29 27 25 21 18 17 16 14 13 12 12 13 13 13 12 12 11 11 11 10 9 8 7 6 5 5 6 7 7 6 6 6 6 6 6 6 6 6 7 8 9 9 9 8 7 6
25 25 25 25 24 25 27 29 31 32 32 33 33 34 34 35 36 37 37 37 37 37 37 37 36 34 33 33 34 35 36 37 37 37 36 34 32 29 28 26 25 23 19 16 15 15 14 13 12 12 12 12 12 12 12 12 11 11 11 10 9 8 8 8 7 7 8 8 7 6 6 6 6 7 6 6 7 7 8 8 8 8 6 5 4
25 26 26 26 26 25 26 28 30 32 33 33 34 34 34 35 36 37 38 38 38 38 38 38 38 37 36 35 36 37 38 39 39 38 36 34 31 28 25 24 22 21 19 16 14 14 14 12 12 11 11 11 11 12 12 12 12 11 11 11 10 9 10 9 9 9 9 8 7 7 7 6 6 7 7 7 7 7 7 7 7 6 5 4 3
25 26 27 27 27 27 26 27 29 32 33 34 34 34 35 35 35 37 38 38 39 39 39 39 39 38 37 37 38 39 40 40 40 38 36 33 30 27 24 22 21 20 19 17 15 14 14 12 11 11 10 10 11 11 11 12 12 12 12 11 11 11 10 10 11 11 10 8 8 8 7 7 7 7 6 6 6 6 6 6 6 5 4 3 2
Wind_Direction
345 344 344 344 344 344 345 344 342 339 337 335 333 331 329 327 326 325 324 324 324 325 323 319 315 312 310 305 300 298 299 301 306 308 309 311 312 307 303 303 301 299 296 290 285 279 275 272 268 264 261 257 255 254 253 250 246 243 239 236 235 235 235 235 234 233 231 230 230 231 232 233 233 234 233 234 234 232 232 233 234 235 235 236 237
346 346 345 345 346 347 347 345 342 340 338 336 335 333 331 329 328 328 329 330 330 329 325 319 315 312 310 305 303 302 302 306 310 311 312 315 313 303 297 299 299 298 297 292 287 281 276 274 270 266 262 258 254 252 253 252 248 244 240 236 233 233 233 232 232 231 231 229 228 229 230 231 232 232 232 232 232 230 229 229 230 232 233 235 236
348 348 347 347 348 348 347 345 343 341 340 338 336 334 333 333 332 333 334 334 334 333 327 320 315 312 310 308 307 306 305 310 312 312 314 317 313 302 294 296 299 299 298 295 290 284 278 274 270 266 262 259 256 252 250 250 249 245 240 236 232 231 231 231 230 229 229 228 227 227 228 229 230 230 231 231 230 229 228 227 227 229 231 233 235
351 350 350 350 350 350 348 346 344 343 341 339 338 336 336 336 337 337 338 337 337 335 329 323 318 315 313 312 312 309 309 313 313 311 314 317 316 308 298 296 299 300 299 296 292 287 281 276 272 268 264 259 256 253 250 247 247 245 241 236 232 229 229 229 228 227 228 227 226 225 226 228 228 229 229 230 229 228 228 226 225 227 228 229 233
354 353 352 352 352 351 348 347 346 344 342 340 339 339 338 340 340 340 341 341 340 338 332 327 322 320 318 317 315 313 314 315 313 311 312 315 316 314 308 303 303 302 299 295 292 288 283 278 274 270 267 262 257 253 250 246 243 243 241 236 232 228 227 227 227 226 226 226 224 224 225 226 227 227 227 228 228 228 227 225 225 228 228 228 231
356 355 354 353 353 351 350 348 347 345 343 342 341 340 340 342 343 344 344 344 344 342 337 333 330 327 324 321 318 317 318 316 313 312 312 315 318 316 313 311 308 304 299 294 292 288 284 278 273 268 265 261 258 253 250 246 241 239 239 236 231 228 225 225 225 225 225 225 223 223 223 224 225 226 226 226 227 227 226 224 226 229 230 231 233
357 356 355 355 354 353 351 350 348 346 345 344 343 341 342 344 346 347 348 348 347 345 341 339 337 333 328 325 322 322 321 318 315 315 317 320 320 317 315 315 313 308 303 301 298 294 288 281 274 267 261 258 256 253 250 247 241 235 235 234 231 227 224 223 223 223 224 224 223 222 223 223 223 224 225 225 225 226 225 224 227 229 232 234 236
357 357 357 356 355 354 353 351 349 347 346 345 344 343 344 347 350 350 350 351 350 348 346 344 342 338 332 328 324 324 322 321 319 318 321 323 321 319 319 321 319 313 309 307 305 301 295 286 278 270 262 256 251 248 247 245 241 233 230 231 230 227 223 222 221 221 222 222 221 221 221 222 223 223 224 224 224 225 225 226 229 231 232 235 235
357 357 358 357 356 356 354 352 350 348 347 347 346 345 347 351 352 352 352 354 353 351 350 348 346 342 337 332 326 323 321 322 324 322 324 327 324 324 326 327 324 317 311 309 309 308 303 294 288 279 265 254 246 242 242 243 241 232 226 227 228 225 222 221 219 220 221 220 219 219 219 220 221 222 222 222 222 224 226 227 229 230 232 234 235
356 356 357 357 357 357 355 353 351 349 349 348 347 347 350 353 354 354 355 357 356 354 354 352 350 346 342 337 330 327 323 324 327 327 329 330 327 330 332 330 328 325 322 320 317 314 309 303 298 290 269 249 240 235 235 239 239 229 221 222 226 223 220 219 218 218 219 218 217 217 217 218 219 220 221 221 222 224 227 228 229 230 232 234 235
356 356 357 357 357 357 356 354 352 351 351 350 349 349 352 355 356 357 358 360 359 357 358 357 354 350 345 340 337 337 333 329 332 334 336 334 334 338 338 336 339 346 346 340 333 326 319 313 307 298 270 240 230 226 227 234 235 225 217 218 222 220 216 215 215 216 216 216 215 215 215 216 217 218 220 221 222 225 228 229 230 230 232 234 236
356 357 357 358 358 358 357 356 354 353 352 351 350 351 353 356 358 359 1 3 2 1 1 2 360 354 348 345 347 351 347 340 338 341 343 341 342 346 347 352 2 4 1 356 351 347 339 329 320 309 277 233 223 221 222 226 224 217 212 213 217 216 212 212 212 212 213 214 214 214 213 214 216 217 219 220 222 225 227 229 230 231 232 234 236
358 358 358 358 358 358 358 357 356 355 354 353 352 352 354 357 0 0 2 4 5 4 4 5 5 359 354 352 355 358 357 350 345 351 352 346 348 351 355 5 10 8 8 8 7 4 359 352 342 326 292 229 217 216 214 209 205 204 204 207 212 212 208 208 209 209 209 211 212 211 211 212 213 215 219 220 221 222 225 225 226 228 229 231 235
359 359 360 360 359 360 360 359 358 356 355 354 353 354 355 358 1 1 2 4 6 7 7 9 8 4 1 1 0 2 4 1 356 360 358 353 355 355 359 7 9 9 12 11 8 11 13 12 7 359 341 193 181 187 187 186 188 190 192 199 206 207 204 204 205 204 205 207 209 209 209 210 211 213 217 219 219 219 220 221 223 224 226 229 232
1 1 1 1 1 1 1 0 360 358 357 356 355 355 356 359 2 2 2 4 7 8 9 12 12 9 7 7 9 10 10 6 360 2 0 359 2 1 1 7 11 15 19 17 16 21 25 26 24 26 46 93 133 157 166 170 176 178 181 190 197 199 199 199 200 201 202 204 205 207 208 207 208 212 215 217 218 218 218 220 222 223 224 227 230
1 1 2 2 3 3 2 2 1 0 359 358 357 356 357 359 2 3 3 4 7 8 9 12 13 13 11 9 14 18 16 14 8 0 357 358 3 6 5 9 15 23 24 20 24 29 31 33 37 42 60 84 108 130 147 160 166 169 174 182 189 192 194 195 196 198 199 200 202 205 208 207 208 212 216 217 217 216 216 217 219 221 223 227 231
1 2 3 3 4 4 3 3 2 2 1 359 359 358 358 360 3 4 4 5 8 10 10 12 14 14 12 10 16 21 18 16 13 1 356 1 7 10 11 16 23 29 26 20 26 34 34 35 43 51 65 81 95 110 128 145 154 162 171 176 183 187 189 190 192 194 197 198 200 203 206 207 209 213 216 217 217 214 213 214 215 218 221 225 229
1 3 4 4 4 5 5 4 4 3 2 1 1 359 359 0 2 5 5 5 9 12 13 13 15 15 15 13 15 20 20 15 11 6 7 12 15 15 18 24 30 32 29 25 29 39 40 41 47 52 63 79 93 107 121 137 146 156 167 173 178 182 184 186 188 190 193 196 199 201 204 207 210 214 215 214 214 212 210 210 212 216 219 223 227
2 3 5 5 5 5 6 5 5 4 3 2 2 1 1 1 2 5 7 6 9 13 14 15 16 16 17 17 16 17 21 19 13 9 11 15 20 25 27 31 34 33 30 28 34 46 51 50 48 49 57 71 89 105 115 128 139 151 163 168 174 177 178 181 184 186 190 194 197 199 203 205 207 211 213 211 210 210 208 209 211 215 219 224 227
2 3 4 5 5 5 6 7 6 6 5 4 3 3 2 1 2 5 7 8 8 12 15 16 18 18 17 18 18 16 21 24 18 12 11 13 21 27 28 31 32 31 30 30 38 52 55 51 45 45 54 62 82 103 108 119 129 144 160 165 171 178 178 178 181 184 186 189 193 198 202 205 206 207 207 207 207 206 206 208 211 215 219 223 227
2 3 4 5 5 5 6 7 8 8 6 6 4 4 4 3 2 4 7 8 9 11 14 16 19 19 18 19 20 19 19 22 22 18 13 15 22 25 26 28 28 32 33 33 42 50 48 48 47 45 48 52 74 96 99 111 120 128 146 157 164 171 176 177 179 183 183 184 189 188 188 199 203 199 196 199 203 205 206 210 212 215 219 222 227
2 3 4 5 5 5 6 7 9 9 8 8 7 6 6 5 3 4 7 8 9 11 13 15 18 20 20 20 21 22 21 21 22 22 18 17 21 24 27 29 30 36 39 38 46 50 46 50 51 45 45 53 75 86 88 97 109 119 137 156 158 159 170 176 176 180 182 183 183 174 177 193 197 193 190 192 198 203 207 211 214 217 219 223 229
1 3 4 5 6 5 6 7 9 10 10 10 10 9 8 7 5 5 6 8 10 11 12 14 16 19 21 21 21 23 24 23 22 23 23 20 20 21 24 27 32 40 44 44 48 52 52 52 54 56 58 67 75 74 71 75 102 120 131 152 159 158 167 172 171 175 178 180 179 176 179 179 177 185 191 191 195 201 206 211 215 218 221 225 230
0 2 4 5 6 6 6 7 9 10 11 12 13 13 12 10 9 7 7 8 10 11 13 14 14 17 21 22 22 23 25 26 25 24 24 23 23 22 21 23 30 39 44 48 51 55 55 50 54 62 65 69 74 73 65 68 116 135 132 146 161 165 166 166 168 172 176 179 181 186 190 177 157 179 192 194 198 202 208 213 217 221 224 227 231
360 2 4 6 7 7 6 6 8 10 11 13 14 15 16 14 12 11 10 10 10 10 12 13 14 15 18 22 23 24 25 26 27 26 25 25 25 26 25 24 27 35 40 49 55 56 53 49 45 44 46 51 63 82 83 89 123 135 136 147 161 164 159 158 162 171 177 182 186 193 201 203 194 194 198 199 202 206 211 216 220 224 226 227 228
359 1 4 6 7 7 6 6 7 9 10 12 14 16 17 17 15 13 13 12 11 10 11 13 14 14 15 18 22 24 25 25 26 26 25 26 26 27 31 30 29 31 34 41 51 54 50 47 40 26 27 34 43 70 104 114 125 131 131 143 151 143 144 148 160 176 182 184 191 196 203 207 204 203 206 204 205 209 214 219 221 222 223 224 224
359 2 4 6 8 8 7 6 6 8 9 10 12 14 16 18 17 15 14 13 13 11 11 11 13 13 13 15 19 23 25 25 25 25 25 25 26 28 32 34 33 32 32 33 37 43 45 41 37 30 28 30 30 45 94 130 141 147 131 121 124 120 123 141 163 179 180 179 189 194 198 202 202 205 209 208 209 212 215 218 218 216 217 221 219
0 3 5 6 8 9 9 7 5 6 7 8 9 11 14 16 17 17 15 13 12 12 11 11 10 11 13 14 16 19 22 24 25 25 24 25 26 28 30 34 36 35 33 32 30 28 31 31 27 23 21 26 27 31 58 110 135 154 160 142 124 112 108 133 154 164 167 173 181 186 191 197 199 203 208 212 214 213 215 217 216 215 216 219 219
4 5 6 6 8 9 9 8 6 5 5 6 7 8 9 12 14 16 16 15 12 10 11 11 9 9 11 13 16 16 18 21 24 24 24 23 25 26 27 30 35 37 35 34 32 28 25 25 23 14 5 11 20 27 39 74 103 122 150 161 156 146 140 143 150 153 157 171 180 184 190 194 198 202 208 217 218 213 216 220 219 219 220 223 225
7 7 7 7 8 9 9 9 8 6 4 4 5 5 6 7 9 11 13 14 13 10 9 9 8 8 8 10 14 16 15 16 19 22 23 23 23 24 25 26 28 33 35 35 36 35 32 32 32 26 16 8 11 24 34 55 86 100 119 145 161 170 170 163 160 162 165 172 179 186 194 199 203 206 209 216 219 217 218 219 222 225 225 226 229
11 9 8 8 9 9 9 10 10 8 6 4 3 3 3 4 5 6 8 10 11 10 9 7 6 7 7 7 9 13 15 14 14 16 20 21 22 23 23 24 24 27 31 32 34 37 37 38 40 41 40 35 28 29 35 45 74 108 123 145 151 151 163 168 171 176 175 176 183 191 198 205 210 211 211 215 221 224 223 221 224 228 228 229 230
12 11 10 10 10 9 9 10 10 10 8 6 4 3 2 2 2 3 3 5 6 8 8 7 5 5 6 7 7 8 11 14 12 11 13 16 20 22 21 22 23 23 25 27 28 32 35 36 39 42 45 48 48 47 50 48 43 154 167 171 171 168 169 170 172 181 186 186 189 194 200 206 212 213 213 217 222 224 220 218 220 221 220 219 219
12 12 11 11 10 10 10 10 11 10 10 8 6 4 3 1 1 1 2 2 3 5 7 7 5 3 3 5 6 6 7 10 10 9 8 9 12 17 19 20 21 21 21 23 23 24 28 30 33 38 44 47 50 53 59 66 75 133 172 173 179 182 178 177 180 186 196 200 201 204 207 209 211 212 210 210 211 205 200 200 203 203 202 204 207
11 12 12 11 11 10 11 11 11 11 10 10 8 5 3 1 1 0 1 1 2 3 5 6 6 3 1 2 4 5 5 6 6 6 5 5 6 9 13 16 18 18 18 20 19 18 20 22 24 29 36 43 48 50 52 56 64 79 123 159 186 191 181 185 195 195 200 206 204 202 197 192 192 193 192 190 190 191 191 190 195 201 203 205 207
10 12 12 12 11 11 12 11 11 11 11 10 8 6 3 1 1 0 1 1 2 3 4 6 6 4 2 1 0 2 3 2 2 3 3 1 1 2 5 8 12 13 15 16 16 15 15 16 18 18 24 35 42 46 46 47 51 57 69 93 138 185 190 195 204 205 201 197 190 183 177 173 176 181 187 191 196 202 203 200 201 203 203 204 205
8 11 12 12 12 11 12 12 11 12 11 10 8 5 4 2 1 1 2 2 2 3 3 5 7 6 4 2 359 359 360 360 359 359 360 359 357 356 357 359 3 5 7 10 12 13 13 14 14 12 15 24 31 38 43 45 46 49 53 60 70 92 149 183 197 203 197 187 176 173 172 174 181 187 196 201 200 200 198 194 193 194 196 199 201
7 8 10 12 12 11 11 11 12 12 11 9 7 6 4 2 1 2 2 3 3 3 3 4 6 7 6 4 1 358 357 358 357 355 355 355 353 352 352 352 353 355 356 0 4 6 8 12 13 12 12 16 20 24 31 41 46 50 53 55 57 64 77 103 127 161 178 175 170 173 177 182 186 189 192 192 185 183 184 184 186 191 194 195 194
5 7 9 11 12 11 11 11 12 12 11 9 8 6 4 2 1 2 2 3 3 3 2 2 4 6 7 6 4 1 358 357 356 354 352 351 350 349 348 346 345 345 344 348 355 357 358 3 9 12 11 11 14 13 12 26 40 48 56 60 60 63 69 82 93 107 136 153 158 165 174 180 183 185 185 182 181 185 188 188 189 191 191 189 188
5 6 7 10 11 11 11 10 11 11 11 9 7 6 4 2 2 2 3 3 4 4 2 1 1 3 5 5 5 3 1 358 357 355 353 351 348 346 344 341 339 338 336 336 341 345 346 349 356 4 9 8 10 9 356 356 16 32 49 62 66 66 70 79 90 99 111 129 143 152 165 175 178 181 184 185 187 188 189 191 190 188 188 188 188
4 6 6 7 10 11 11 10 9 10 10 8 7 6 4 3 2 3 3 4 4 4 2 0 359 360 1 2 3 2 0 358 356 355 353 351 348 345 342 338 334 332 330 327 328 330 332 336 339 344 354 2 6 3 353 341 338 354 25 53 65 70 80 88 98 110 116 126 145 155 165 174 178 183 187 191 192 190 189 189 189 188 189 192 197
3 5 5 5 7 10 10 9 8 8 8 7 7 6 5 3 3 3 4 4 4 3 2 360 358 358 359 359 359 358 357 355 353 352 350 348 345 342 340 337 332 328 325 322 320 318 318 322 325 325 330 342 352 354 350 348 343 326 322 19 76 84 103 112 117 128 132 135 147 162 170 174 176 181 186 189 193 194 192 190 190 193 197 202 208
2 4 4 4 5 8 9 9 8 7 7 7 6 6 5 4 4 3 4 5 4 3 1 359 358 358 358 357 356 355 353 351 349 347 345 343 340 337 335 333 330 326 322 318 316 312 307 308 311 312 310 314 324 332 336 344 350 341 314 261 211 186 161 150 148 149 146 144 150 163 176 179 176 176 180 186 190 195 199 199 200 203 207 212 217
359 2 3 3 4 6 7 7 7 7 6 6 6 6 5 5 4 4 5 5 4 3 2 359 358 358 357 354 353 351 349 347 345 343 340 337 334 332 330 328 325 322 319 316 313 309 302 296 297 300 298 296 298 305 311 322 332 340 339 284 233 213 195 185 180 172 160 155 162 171 181 189 186 182 185 192 196 200 205 209 212 216 219 221 226
354 359 2 2 3 4 5 5 5 6 6 5 6 6 5 5 5 5 5 5 5 4 2 360 358 357 354 352 350 348 346 344 342 339 336 333 330 327 324 322 320 318 316 313 310 305 299 290 286 287 289 289 287 288 291 295 305 322 340 330 283 233 209 204 204 196 178 169 172 176 182 191 194 191 191 196 202 206 210 214 217 221 224 227 231
349 354 359 1 1 2 3 3 3 4 4 4 5 5 5 5 5 5 5 6 6 5 3 1 358 356 354 351 349 346 345 342 340 337 334 331 328 325 321 318 316 314 312 310 307 303 296 289 283 280 282 284 283 280 279 281 286 296 309 321 322 286 235 215 213 215 203 190 184 181 182 188 193 194 194 196 201 206 211 216 219 221 224 228 230
344 348 353 357 359 360 0 1 1 1 2 3 4 4 4 4 5 5 5 5 5 5 4 2 359 357 355 352 349 347 345 342 340 337 334 331 328 325 321 317 314 312 310 307 305 300 294 287 282 279 278 279 281 280 275 272 274 279 287 297 305 302 283 249 232 232 223 209 199 188 185 190 192 193 195 199 202 205 211 217 220 222 225 228 228
342 344 347 351 355 357 357 359 359 360 359 360 1 3 3 4 4 5 5 4 5 5 4 2 0 358 355 353 350 348 345 342 340 337 334 332 329 326 322 318 316 314 311 307 302 297 291 285 279 276 275 275 276 279 276 269 265 266 272 283 289 290 287 263 239 234 228 218 211 199 194 200 201 197 198 201 204 208 213 217 219 220 221 222 225
338 341 343 345 349 352 354 355 357 358 358 357 358 0 2 3 3 4 4 3 4 4 3 2 0 358 355 353 350 347 345 342 340 338 335 333 330 328 324 321 320 319 315 308 300 294 288 282 277 274 272 273 273 275 276 273 266 260 260 267 272 272 272 267 250 239 229 221 215 204 200 206 212 209 206 205 206 210 214 216 215 213 213 214 222
334 337 339 341 343 346 349 351 353 356 357 356 356 358 0 1 2 3 3 2 2 2 2 2 0 358 356 353 350 347 345 343 341 339 337 336 334 332 329 326 326 326 322 311 300 294 286 276 272 272 270 271 273 273 274 274 271 264 259 261 263 263 263 262 258 249 237 228 222 211 204 208 215 215 211 208 209 210 212 212 207 202 200 204 216
332 333 336 338 339 341 344 347 349 353 355 355 354 355 358 359 0 1 1 1 0 1 2 1 360 358 356 353 351 348 346 345 342 340 339 339 339 338 337 335 334 334 332 321 306 300 294 277 264 266 267 267 269 272 272 273 273 269 264 262 262 259 258 256 251 243 236 233 232 222 210 205 211 217 216 211 211 211 208 204 199 193 188 189 199
330 330 332 334 336 337 339 342 345 349 352 353 353 353 355 357 359 360 360 359 358 359 1 1 359 358 356 353 351 350 348 346 344 342 342 343 343 343 342 341 340 341 341 336 323 312 311 299 273 261 262 262 263 265 267 269 272 272 269 266 264 262 259 252 242 234 226 222 226 227 221 211 207 213 218 217 215 212 203 196 194 189 183 181 185
Height
5751 5749 5746 5743 5740 5737 5734 5731 5728 5724 5721 5717 5713 5709 5705 5701 5697 5692 5688 5683 5678 5673 5668 5663 5660 5658 5655 5653 5649 5646 5643 5640 5638 5635 5631 5626 5622 5619 5617 5614 5611 5609 5607 5605 5604 5602 5601 5600 5600 5600 5600 5600 5601 5603 5604 5607 5609 5612 5615 5619 5624 5628 5633 5637 5642 5646 5650 5654 5658 5661 5665 5668 5672 5675 5679 5682 5685 5688 5690 5693 5695 5697 5700 5701 5703
5750 5747 5744 5741 5738 5735 5732 5729 5726 5722 5718 5714 5710 5706 5702 5698 5693 5688 5684 5679 5674 5669 5664 5660 5657 5654 5651 5648 5645 5642 5639 5636 5633 5630 5626 5622 5619 5617 5614 5611 5608 5606 5604 5602 5600 5598 5597 5596 5595 5594 5594 5595 5595 5597 5599 5601 5603 5606 5609 5613 5617 5622 5626 5631 5636 5640 5644 5648 5653 5657 5660 5664 5668 5671 5675 5678 5681 5684 5687 5689 5692 5694 5696 5698 5699
5749 5746 5743 5740 5737 5733 5730 5727 5724 5720 5716 5712 5708 5703 5699 5694 5690 5685 5680 5675 5670 5665 5660 5656 5653 5650 5647 5644 5641 5637 5634 5631 5628 5625 5622 5618 5616 5614 5612 5609 5605 5602 5600 5598 5596 5594 5592 5591 5590 5589 5589 5589 5590 5591 5593 5596 5598 5600 5603 5606 5611 5615 5620 5625 5630 5634 5638 5643 5647 5652 5656 5659 5663 5667 5671 5674 5677 5681 5683 5686 5689 5691 5693 5694 5695
5748 5744 5741 5738 5735 5732 5729 5725 5722 5717 5713 5709 5705 5701 5696 5692 5687 5682 5677 5672 5667 5661 5657 5653 5650 5646 5643 5639 5636 5633 5630 5627 5624 5620 5618 5615 5613 5610 5608 5605 5602 5598 5595 5593 5591 5589 5587 5586 5585 5584 5584 5585 5585 5586 5587 5590 5592 5594 5597 5600 5604 5609 5614 5619 5624 5629 5633 5638 5642 5647 5651 5655 5659 5663 5667 5670 5674 5677 5680 5684 5686 5687 5688 5690 5690
5746 5743 5740 5737 5734 5730 5727 5723 5719 5715 5711 5707 5703 5699 5694 5690 5685 5679 5674 5669 5663 5658 5654 5651 5647 5643 5639 5635 5632 5629 5626 5623 5619 5616 5614 5612 5609 5607 5603 5601 5598 5595 5591 5587 5585 5583 5581 5580 5580 5579 5579 5579 5580 5581 5582 5584 5587 5589 5591 5594 5599 5604 5609 5614 5619 5624 5628 5633 5637 5642 5647 5651 5655 5659 5663 5667 5670 5674 5677 5681 5683 5683 5683 5684 5686
5745 5742 5739 5736 5732 5729 5725 5721 5717 5713 5709 5705 5701 5697 5692 5688 5683 5677 5672 5666 5661 5656 5652 5648 5644 5640 5636 5633 5629 5626 5623 5620 5616 5613 5611 5608 5606 5603 5599 5596 5593 5590 5587 5583 5580 5578 5575 5574 5573 5573 5574 5574 5575 5576 5578 5579 5582 5585 5587 5590 5593 5598 5603 5609 5614 5619 5624 5628 5633 5638 5642 5647 5651 5655 5659 5663 5666 5670 5674 5677 5678 5677 5679 5681 5683
5744 5741 5738 5734 5731 5727 5724 5720 5716 5712 5708 5703 5699 5695 5690 5686 5681 5676 5670 5664 5659 5654 5650 5646 5642 5638 5634 5630 5627 5624 5620 5616 5613 5610 5608 5605 5603 5600 5596 5592 5589 5585 5582 5578 5575 5572 5569 5567 5567 5567 5567 5568 5570 5572 5573 5575 5577 5580 5583 5586 5589 5593 5598 5604 5609 5615 5620 5624 5629 5634 5639 5643 5647 5651 5655 5659 5663 5667 5669 5671 5672 5674 5677 5679 5681
5743 5740 5736 5733 5730 5726 5722 5718 5714 5710 5706 5702 5698 5693 5689 5684 5679 5674 5669 5663 5657 5652 5648 5644 5640 5636 5633 5629 5625 5621 5617 5613 5610 5608 5605 5603 5601 5597 5593 5589 5585 5581 5578 5574 5570 5567 5564 5562 5561 5561 5561 5563 5565 5567 5568 5570 5573 5576 5580 5583 5586 5589 5594 5599 5605 5611 5616 5621 5626 5631 5635 5640 5644 5648 5652 5656 5659 5662 5664 5666 5668 5672 5675 5677 5679
5742 5739 5735 5732 5728 5725 5721 5717 5713 5709 5705 5701 5697 5692 5688 5683 5678 5673 5668 5662 5656 5652 5647 5643 5639 5635 5631 5627 5622 5618 5614 5610 5608 5605 5603 5601 5598 5595 5591 5587 5583 5579 5574 5570 5567 5563 5560 5558 5557 5556 5556 5557 5560 5562 5564 5566 5569 5572 5576 5580 5583 5586 5590 5595 5601 5607 5612 5617 5622 5627 5632 5636 5640 5644 5648 5651 5655 5657 5659 5663 5667 5670 5672 5674 5677
5741 5738 5734 5731 5727 5723 5720 5716 5711 5707 5703 5699 5695 5691 5687 5682 5677 5672 5666 5661 5655 5650 5646 5641 5637 5633 5628 5624 5619 5615 5611 5608 5606 5603 5601 5599 5597 5594 5589 5585 5581 5576 5572 5568 5564 5561 5558 5556 5554 5552 5552 5553 5556 5558 5561 5564 5566 5569 5573 5577 5580 5584 5587 5592 5598 5603 5609 5614 5619 5624 5629 5633 5637 5641 5644 5648 5651 5654 5657 5661 5665 5668 5670 5672 5675
5741 5737 5733 5730 5726 5722 5719 5715 5710 5706 5702 5698 5694 5690 5686 5681 5677 5671 5666 5660 5655 5649 5644 5640 5635 5630 5625 5620 5615 5611 5608 5606 5604 5602 5599 5597 5595 5592 5588 5583 5579 5574 5570 5567 5563 5560 5556 5554 5552 5550 5550 5551 5553 5556 5558 5561 5564 5567 5571 5575 5579 5582 5585 5590 5595 5600 5605 5611 5616 5621 5625 5630 5633 5637 5641 5645 5649 5652 5655 5659 5663 5665 5668 5670 5673
5740 5736 5732 5729 5725 5722 5718 5714 5709 5705 5701 5697 5693 5689 5685 5681 5676 5671 5666 5661 5655 5650 5645 5640 5635 5629 5623 5617 5613 5609 5606 5604 5603 5600 5598 5596 5594 5592 5588 5583 5578 5574 5570 5566 5563 5559 5556 5553 5551 5550 5549 5550 5552 5554 5556 5559 5562 5566 5570 5574 5578 5581 5584 5588 5592 5597 5602 5608 5613 5618 5622 5626 5630 5634 5638 5642 5646 5649 5652 5656 5659 5663 5666 5668 5671
5739 5735 5732 5728 5724 5721 5717 5713 5709 5704 5700 5696 5692 5688 5684 5680 5676 5671 5666 5661 5656 5651 5646 5641 5636 5630 5623 5616 5612 5608 5604 5603 5602 5600 5598 5596 5594 5592 5588 5583 5578 5574 5571 5567 5563 5559 5556 5552 5551 5550 5550 5550 5551 5553 5555 5558 5562 5566 5570 5573 5577 5579 5583 5587 5591 5595 5600 5605 5610 5615 5620 5623 5628 5632 5636 5639 5642 5645 5648 5652 5655 5659 5662 5665 5668
5738 5734 5731 5727 5724 5720 5716 5712 5708 5704 5700 5696 5692 5688 5684 5680 5676 5671 5667 5662 5657 5652 5647 5642 5637 5630 5624 5618 5612 5607 5603 5602 5601 5599 5598 5596 5594 5591 5587 5583 5579 5575 5572 5568 5563 5559 5556 5554 5552 5551 5550 5550 5551 5553 5555 5559 5562 5566 5569 5573 5576 5578 5582 5586 5589 5593 5598 5603 5608 5613 5617 5621 5625 5629 5632 5634 5637 5640 5644 5648 5652 5656 5659 5662 5664
5737 5734 5730 5727 5723 5719 5716 5711 5707 5703 5699 5695 5691 5687 5683 5680 5675 5671 5666 5662 5657 5652 5647 5643 5637 5631 5624 5619 5614 5608 5604 5602 5601 5600 5598 5596 5594 5591 5587 5583 5579 5576 5573 5569 5565 5561 5558 5556 5554 5553 5552 5552 5553 5555 5557 5560 5563 5566 5569 5572 5575 5578 5582 5585 5588 5593 5598 5602 5607 5611 5614 5618 5622 5625 5627 5629 5634 5638 5643 5647 5651 5654 5657 5659 5661
5737 5733 5730 5726 5723 5719 5715 5711 5707 5703 5699 5695 5691 5687 5683 5680 5676 5672 5667 5662 5658 5652 5646 5641 5636 5630 5625 5620 5616 5610 5606 5603 5602 5600 5598 5596 5594 5591 5588 5584 5580 5577 5574 5571 5567 5563 5561 5560 5558 5557 5556 5556 5557 5559 5561 5563 5565 5568 5570 5572 5575 5578 5581 5585 5588 5593 5597 5601 5605 5609 5612 5616 5619 5622 5625 5628 5633 5638 5642 5646 5649 5652 5655 5657 5658
5737 5733 5729 5725 5722 5719 5715 5711 5707 5703 5699 5696 5691 5687 5683 5680 5676 5672 5668 5663 5658 5652 5646 5641 5636 5630 5625 5621 5617 5611 5607 5605 5603 5601 5598 5596 5594 5591 5589 5585 5582 5579 5576 5573 5570 5567 5566 5564 5562 5561 5560 5560 5561 5563 5564 5566 5568 5570 5572 5573 5576 5578 5581 5585 5588 5592 5597 5600 5603 5607 5611 5614 5617 5620 5623 5628 5633 5638 5641 5644 5647 5650 5652 5654 5656
5736 5733 5729 5725 5722 5718 5715 5711 5707 5703 5699 5695 5691 5687 5684 5680 5677 5673 5669 5664 5659 5654 5648 5643 5638 5632 5627 5623 5617 5613 5609 5607 5605 5602 5599 5597 5595 5592 5590 5587 5584 5581 5579 5576 5574 5571 5569 5568 5566 5565 5565 5564 5565 5566 5567 5569 5570 5572 5573 5575 5577 5579 5582 5585 5589 5592 5596 5600 5603 5606 5610 5613 5617 5620 5624 5628 5633 5636 5639 5642 5645 5647 5649 5651 5653
5736 5732 5729 5725 5721 5718 5715 5711 5707 5703 5699 5695 5691 5687 5683 5680 5677 5673 5669 5665 5660 5655 5650 5645 5639 5634 5629 5624 5620 5616 5612 5609 5607 5605 5602 5599 5596 5594 5592 5589 5586 5584 5582 5580 5578 5575 5573 5571 5570 5569 5568 5568 5568 5569 5570 5571 5572 5573 5575 5577 5579 5581 5583 5586 5589 5592 5595 5599 5602 5605 5608 5612 5615 5619 5623 5628 5631 5634 5638 5640 5643 5645 5647 5649 5651
5736 5732 5728 5725 5721 5718 5715 5711 5707 5703 5699 5695 5691 5687 5684 5680 5677 5673 5670 5665 5661 5656 5651 5647 5642 5637 5632 5627 5623 5619 5615 5611 5609 5607 5604 5601 5598 5595 5593 5590 5588 5586 5585 5583 5581 5578 5576 5575 5574 5573 5572 5571 5571 5572 5572 5573 5574 5575 5577 5579 5581 5583 5584 5586 5589 5592 5595 5598 5602 5605 5609 5612 5614 5617 5622 5626 5629 5632 5635 5638 5641 5643 5645 5647 5649
5735 5732 5728 5725 5721 5718 5715 5711 5707 5703 5699 5696 5692 5688 5684 5680 5677 5673 5670 5666 5662 5657 5653 5648 5644 5639 5635 5630 5626 5621 5618 5614 5611 5608 5606 5603 5600 5597 5595 5593 5591 5589 5588 5586 5584 5582 5580 5578 5577 5576 5575 5574 5575 5575 5575 5576 5576 5577 5579 5581 5582 5584 5586 5588 5589 5592 5595 5598 5601 5606 5610 5610 5611 5615 5619 5623 5627 5631 5633 5636 5638 5641 5643 5645 5647
5735 5732 5728 5725 5721 5718 5715 5711 5708 5704 5700 5696 5692 5688 5684 5680 5677 5674 5670 5667 5662 5658 5654 5650 5646 5642 5638 5633 5629 5625 5621 5618 5614 5611 5608 5605 5602 5600 5597 5596 5594 5592 5590 5589 5586 5585 5584 5582 5580 5579 5578 5577 5577 5578 5578 5579 5579 5579 5581 5583 5583 5585 5587 5589 5591 5593 5596 5599 5602 5607 5610 5608 5609 5614 5618 5621 5625 5629 5632 5634 5636 5638 5641 5643 5645
5735 5732 5728 5725 5721 5718 5715 5711 5708 5704 5700 5697 5693 5689 5685 5681 5678 5674 5671 5668 5664 5660 5656 5652 5648 5644 5640 5636 5632 5628 5624 5620 5617 5613 5610 5607 5605 5602 5599 5598 5596 5594 5593 5591 5589 5588 5587 5585 5584 5583 5582 5581 5581 5581 5581 5581 5582 5582 5584 5585 5585 5586 5588 5590 5592 5595 5597 5600 5603 5607 5609 5609 5611 5616 5619 5621 5623 5626 5630 5632 5634 5636 5639 5641 5643
5735 5732 5728 5725 5721 5718 5715 5712 5708 5704 5701 5697 5694 5690 5686 5682 5678 5675 5672 5668 5665 5662 5658 5654 5650 5646 5642 5639 5635 5631 5627 5623 5619 5616 5613 5610 5607 5605 5602 5601 5599 5597 5595 5594 5592 5591 5590 5589 5587 5586 5586 5586 5585 5585 5585 5584 5584 5584 5586 5588 5587 5588 5590 5592 5594 5596 5598 5600 5603 5606 5607 5609 5612 5616 5619 5620 5622 5625 5628 5630 5632 5635 5637 5639 5641
5735 5731 5728 5725 5721 5718 5715 5712 5708 5705 5701 5698 5694 5691 5687 5683 5679 5676 5672 5669 5666 5663 5659 5656 5652 5648 5645 5641 5637 5633 5630 5626 5622 5619 5616 5613 5610 5608 5605 5604 5602 5600 5598 5597 5595 5594 5593 5592 5590 5589 5589 5589 5589 5589 5589 5589 5587 5588 5590 5590 5590 5591 5592 5594 5597 5598 5600 5602 5604 5605 5607 5609 5613 5615 5618 5619 5621 5624 5626 5629 5631 5634 5636 5637 5639
5734 5731 5728 5725 5721 5718 5715 5712 5709 5705 5702 5698 5695 5691 5687 5684 5680 5676 5673 5670 5667 5663 5660 5657 5654 5650 5647 5643 5639 5636 5632 5629 5625 5622 5619 5616 5613 5610 5608 5606 5604 5602 5601 5600 5598 5597 5595 5594 5593 5592 5591 5592 5592 5592 5592 5593 5592 5593 5594 5594 5594 5594 5595 5597 5599 5600 5601 5603 5604 5606 5608 5610 5612 5614 5617 5618 5620 5623 5626 5628 5630 5632 5634 5636 5637
5734 5731 5728 5725 5721 5718 5715 5712 5709 5705 5702 5699 5695 5692 5688 5684 5681 5677 5674 5670 5667 5664 5661 5658 5655 5652 5649 5645 5641 5638 5635 5632 5629 5626 5622 5619 5616 5613 5610 5608 5606 5605 5603 5602 5601 5600 5598 5596 5595 5594 5594 5594 5594 5594 5594 5595 5595 5596 5597 5597 5597 5597 5598 5599 5600 5601 5603 5604 5605 5607 5608 5610 5612 5614 5616 5618 5620 5622 5625 5627 5628 5630 5632 5634 5636
5733 5730 5727 5724 5721 5718 5715 5712 5709 5706 5702 5699 5696 5692 5689 5685 5682 5678 5675 5671 5668 5665 5662 5659 5656 5654 5651 5648 5644 5640 5637 5634 5631 5628 5625 5622 5619 5616 5613 5611 5608 5606 5605 5604 5603 5602 5600 5599 5597 5596 5596 5596 5595 5595 5595 5596 5596 5597 5597 5598 5599 5599 5600 5601 5601 5602 5604 5605 5606 5608 5609 5611 5613 5614 5616 5618 5620 5622 5624 5625 5626 5628 5630 5632 5634
5733 5730 5727 5724 5721 5718 5715 5712 5709 5706 5703 5699 5696 5693 5689 5685 5682 5679 5676 5672 5669 5666 5663 5660 5657 5654 5652 5649 5646 5642 5639 5636 5633 5631 5628 5625 5622 5619 5616 5614 5611 5609 5608 5606 5604 5603 5601 5600 5599 5598 5597 5597 5597 5597 5597 5597 5597 5597 5598 5599 5600 5600 5601 5601 5602 5602 5604 5605 5606 5608 5609 5611 5613 5615 5616 5617 5619 5621 5623 5624 5625 5627 5628 5630 5633
5733 5730 5727 5724 5721 5718 5716 5712 5709 5706 5703 5700 5697 5693 5690 5686 5683 5679 5676 5673 5670 5667 5663 5661 5658 5655 5652 5650 5647 5645 5641 5638 5635 5633 5630 5627 5624 5621 5619 5617 5614 5611 5610 5609 5607 5605 5603 5602 5601 5600 5599 5598 5598 5598 5598 5598 5598 5598 5598 5599 5599 5600 5601 5602 5602 5603 5604 5605 5607 5608 5609 5611 5613 5614 5616 5616 5617 5619 5621 5622 5624 5626 5627 5629 5631
5733 5730 5727 5724 5721 5719 5716 5713 5709 5706 5703 5700 5697 5694 5690 5687 5683 5680 5676 5673 5670 5667 5664 5661 5659 5656 5653 5650 5648 5646 5643 5641 5638 5635 5632 5629 5626 5624 5621 5619 5617 5614 5612 5611 5609 5607 5606 5604 5603 5601 5600 5599 5598 5598 5598 5598 5598 5598 5598 5599 5599 5600 5600 5601 5602 5603 5604 5605 5606 5607 5609 5611 5612 5613 5614 5615 5616 5618 5619 5621 5623 5624 5626 5628 5630
5734 5731 5728 5724 5722 5719 5716 5713 5709 5706 5703 5700 5697 5694 5691 5687 5684 5680 5677 5673 5670 5667 5664 5661 5659 5656 5654 5651 5649 5646 5644 5642 5639 5637 5634 5631 5628 5626 5624 5621 5619 5617 5615 5613 5611 5609 5608 5606 5605 5603 5602 5601 5599 5599 5598 5598 5597 5597 5598 5598 5599 5599 5600 5601 5602 5603 5604 5605 5606 5607 5608 5610 5611 5612 5613 5614 5615 5616 5618 5619 5621 5623 5624 5626 5628
5734 5731 5728 5725 5722 5719 5716 5713 5710 5707 5704 5701 5698 5694 5691 5688 5684 5680 5677 5673 5670 5667 5664 5661 5659 5657 5654 5652 5649 5647 5645 5642 5640 5638 5636 5633 5630 5628 5626 5623 5621 5619 5617 5614 5613 5611 5610 5608 5607 5605 5604 5603 5602 5600 5599 5598 5598 5598 5598 5598 5598 5599 5600 5601 5602 5603 5603 5604 5605 5607 5608 5609 5610 5611 5612 5613 5614 5616 5617 5618 5620 5621 5623 5625 5626
5734 5731 5728 5725 5722 5720 5716 5713 5710 5707 5704 5701 5698 5695 5692 5688 5684 5681 5677 5674 5670 5667 5664 5661 5659 5657 5654 5652 5650 5647 5645 5643 5641 5639 5636 5634 5632 5629 5627 5625 5623 5621 5618 5616 5614 5613 5611 5610 5608 5607 5606 5605 5604 5603 5601 5600 5599 5598 5598 5598 5599 5599 5600 5600 5601 5602 5603 5603 5604 5606 5607 5608 5609 5610 5611 5613 5614 5615 5616 5618 5619 5621 5622 5624 5625
5734 5731 5729 5726 5723 5720 5717 5713 5710 5707 5704 5701 5698 5695 5692 5688 5684 5681 5677 5674 5670 5667 5664 5661 5659 5657 5654 5652 5650 5648 5646 5643 5641 5639 5637 5635 5632 5630 5628 5626 5624 5622 5620 5618 5616 5614 5612 5611 5610 5609 5607 5606 5605 5604 5603 5602 5600 5599 5598 5598 5598 5599 5599 5600 5601 5602 5602 5603 5604 5605 5606 5607 5609 5610 5611 5612 5613 5615 5616 5617 5619 5620 5622 5623 5625
5734 5732 5729 5726 5723 5720 5717 5714 5711 5707 5704 5701 5698 5695 5692 5688 5685 5681 5678 5674 5670 5667 5664 5662 5659 5657 5654 5652 5650 5648 5646 5644 5641 5639 5637 5635 5633 5631 5629 5627 5625 5623 5621 5619 5618 5616 5614 5612 5610 5609 5608 5607 5606 5605 5604 5603 5602 5601 5600 5599 5599 5599 5599 5599 5600 5601 5602 5603 5604 5605 5606 5607 5609 5610 5611 5612 5613 5614 5615 5617 5618 5620 5621 5622 5624
5734 5732 5729 5726 5723 5720 5717 5714 5711 5708 5705 5702 5698 5695 5692 5688 5685 5681 5678 5675 5671 5668 5665 5662 5659 5657 5654 5652 5650 5648 5646 5644 5641 5639 5637 5635 5633 5631 5629 5627 5625 5624 5622 5620 5618 5617 5615 5612 5611 5610 5608 5607 5607 5606 5605 5605 5604 5603 5602 5601 5601 5600 5600 5600 5600 5601 5602 5603 5603 5605 5606 5607 5608 5610 5611 5612 5613 5614 5615 5617 5618 5619 5620 5622 5623
5735 5732 5729 5727 5724 5721 5718 5715 5711 5708 5705 5702 5698 5695 5692 5689 5685 5682 5679 5675 5672 5668 5665 5662 5659 5657 5655 5652 5650 5648 5646 5644 5641 5639 5636 5634 5632 5631 5629 5627 5625 5623 5622 5620 5619 5617 5615 5613 5612 5610 5609 5608 5607 5606 5605 5605 5604 5603 5602 5602 5602 5601 5601 5601 5601 5601 5602 5603 5604 5605 5606 5607 5608 5609 5610 5611 5612 5614 5615 5616 5617 5618 5620 5621 5622
5735 5732 5729 5727 5724 5721 5718 5715 5712 5708 5705 5702 5699 5696 5693 5690 5686 5683 5679 5676 5673 5669 5666 5663 5660 5657 5655 5653 5650 5648 5646 5643 5641 5639 5636 5634 5632 5630 5628 5626 5624 5623 5621 5619 5618 5617 5615 5614 5612 5611 5609 5608 5607 5606 5605 5604 5604 5603 5603 5603 5602 5602 5602 5602 5602 5602 5603 5604 5604 5605 5606 5607 5608 5609 5610 5611 5612 5613 5614 5615 5616 5618 5619 5620 5621
5735 5732 5730 5727 5724 5721 5718 5715 5712 5709 5706 5703 5700 5697 5693 5690 5687 5683 5680 5676 5673 5670 5667 5664 5661 5658 5655 5653 5651 5648 5646 5643 5640 5638 5636 5634 5631 5629 5627 5626 5624 5622 5620 5618 5617 5616 5615 5614 5612 5611 5609 5608 5607 5606 5605 5604 5604 5604 5604 5603 5603 5602 5602 5602 5602 5602 5603 5603 5604 5605 5606 5607 5608 5608 5609 5610 5611 5612 5613 5615 5616 5617 5619 5620 5621
5735 5732 5730 5727 5724 5721 5718 5715 5713 5710 5707 5704 5701 5697 5694 5691 5688 5684 5681 5677 5674 5671 5668 5665 5662 5659 5656 5653 5651 5648 5645 5643 5640 5638 5635 5633 5631 5629 5627 5625 5622 5621 5619 5617 5616 5615 5614 5613 5612 5611 5609 5608 5606 5605 5604 5604 5604 5604 5604 5603 5603 5603 5603 5603 5603 5603 5603 5603 5604 5605 5606 5606 5607 5608 5609 5610 5611 5612 5613 5614 5616 5617 5618 5619 5620
5735 5732 5730 5727 5725 5722 5719 5716 5713 5711 5708 5705 5701 5698 5695 5692 5688 5685 5681 5678 5674 5671 5668 5665 5662 5659 5656 5653 5651 5648 5645 5643 5640 5638 5635 5633 5630 5628 5625 5623 5621 5619 5617 5616 5615 5614 5613 5612 5611 5610 5609 5607 5606 5605 5604 5603 5603 5603 5602 5603 5603 5603 5603 5603 5603 5603 5603 5604 5604 5605 5606 5606 5607 5608 5609 5610 5611 5612 5613 5614 5615 5616 5617 5619 5620
5735 5732 5730 5727 5725 5722 5719 5716 5714 5711 5708 5705 5702 5699 5696 5692 5689 5686 5682 5678 5675 5672 5668 5666 5662 5659 5656 5654 5651 5648 5645 5642 5640 5637 5635 5632 5629 5626 5624 5621 5619 5617 5615 5614 5613 5612 5611 5610 5609 5608 5608 5607 5605 5604 5603 5603 5602 5602 5602 5602 5602 5602 5603 5603 5603 5603 5603 5604 5604 5605 5606 5606 5607 5608 5608 5610 5611 5612 5613 5614 5615 5616 5617 5618 5619
5735 5732 5730 5727 5725 5722 5720 5717 5714 5711 5709 5705 5702 5699 5696 5693 5690 5686 5683 5679 5675 5672 5669 5666 5662 5659 5656 5653 5651 5648 5645 5642 5639 5636 5633 5630 5627 5625 5622 5619 5616 5614 5613 5611 5610 5609 5608 5608 5607 5606 5606 5605 5604 5603 5602 5602 5601 5601 5601 5601 5601 5601 5602 5602 5602 5603 5603 5604 5604 5605 5605 5606 5607 5608 5608 5609 5610 5611 5612 5613 5614 5615 5616 5617 5617
5734 5732 5730 5727 5725 5722 5720 5717 5714 5712 5709 5706 5703 5699 5696 5693 5690 5686 5683 5679 5676 5672 5669 5666 5663 5659 5656 5653 5650 5647 5644 5641 5638 5634 5631 5628 5625 5622 5619 5616 5613 5611 5609 5608 5607 5606 5605 5605 5604 5604 5604 5603 5603 5602 5602 5601 5601 5600 5600 5599 5599 5600 5600 5601 5602 5602 5603 5603 5604 5605 5605 5606 5607 5607 5608 5609 5610 5611 5611 5612 5613 5614 5615 5615 5616
5734 5732 5730 5727 5725 5722 5720 5717 5715 5712 5709 5706 5703 5700 5696 5693 5689 5686 5683 5679 5676 5672 5669 5666 5662 5659 5656 5653 5649 5646 5643 5639 5635 5632 5628 5625 5621 5618 5615 5612 5610 5608 5606 5605 5604 5603 5603 5602 5602 5602 5601 5601 5601 5601 5601 5601 5600 5600 5599 5599 5599 5599 5599 5600 5601 5601 5602 5603 5603 5604 5605 5606 5606 5607 5608 5608 5609 5610 5611 5611 5612 5613 5614 5615 5615
5733 5731 5729 5727 5725 5722 5720 5717 5715 5712 5709 5706 5703 5700 5696 5693 5689 5686 5682 5679 5675 5672 5668 5665 5662 5658 5655 5652 5648 5645 5641 5637 5633 5629 5626 5622 5618 5615 5611 5608 5606 5604 5602 5601 5600 5600 5600 5599 5599 5599 5599 5599 5599 5599 5599 5599 5599 5598 5598 5598 5598 5598 5598 5598 5599 5600 5601 5602 5602 5603 5604 5605 5606 5606 5607 5607 5608 5609 5610 5611 5612 5612 5613 5614 5615
5733 5731 5729 5727 5724 5722 5720 5717 5714 5712 5709 5706 5703 5699 5696 5692 5689 5685 5682 5679 5675 5672 5668 5665 5661 5657 5654 5650 5647 5643 5639 5635 5631 5627 5623 5619 5615 5611 5608 5605 5602 5600 5599 5598 5597 5597 5597 5597 5596 5596 5596 5596 5596 5597 5597 5597 5597 5597 5598 5597 5597 5597 5597 5598 5598 5599 5600 5601 5601 5602 5603 5604 5605 5606 5606 5607 5608 5609 5609 5610 5611 5612 5613 5614 5614
5732 5730 5728 5726 5724 5722 5719 5717 5714 5711 5709 5705 5702 5699 5696 5692 5689 5685 5682 5679 5675 5671 5667 5664 5660 5657 5653 5649 5645 5641 5637 5633 5628 5624 5620 5616 5612 5608 5605 5602 5599 5597 5596 5595 5595 5594 5594 5594 5593 5594 5594 5594 5594 5594 5595 5595 5595 5596 5596 5596 5596 5597 5597 5597 5597 5598 5598 5599 5600 5601 5602 5604 5605 5605 5606 5607 5607 5608 5609 5610 5611 5611 5612 5613 5613
5731 5729 5727 5725 5723 5721 5719 5716 5714 5711 5708 5705 5702 5698 5695 5692 5688 5685 5682 5678 5675 5671 5667 5663 5659 5655 5651 5647 5643 5639 5634 5630 5625 5621 5616 5613 5609 5606 5603 5600 5597 5595 5594 5593 5592 5592 5591 5591 5591 5591 5591 5591 5592 5592 5592 5593 5593 5594 5594 5595 5595 5595 5596 5596 5596 5597 5597 5598 5599 5600 5602 5603 5604 5604 5605 5606 5607 5607 5608 5609 5610 5611 5611 5612 5612
5730 5728 5726 5724 5722 5720 5718 5716 5713 5711 5708 5705 5701 5698 5695 5691 5688 5684 5681 5678 5674 5671 5667 5663 5659 5655 5650 5646 5642 5637 5632 5628 5623 5618 5614 5610 5606 5603 5601 5598 5596 5594 5592 5591 5590 5589 5589 5589 5589 5589 5589 5589 5590 5590 5591 5591 5591 5592 5592 5593 5593 5593 5594 5595 5595 5595 5596 5597 5598 5599 5601 5602 5603 5603 5604 5605 5606 5607 5608 5609 5609 5610 5611 5611 5611